Tracking 33485 objects as of 15-Mar-2026
HD Live streaming from Space Station
objects crossing your sky now

STARLINK-36676

Track STARLINK-36676 now!
10-day predictions
STARLINK-36676 is classified as:


NORAD ID: 67912
Int'l Code: 2026-036J
Perigee: 371.5 km
Apogee: 373.4 km
Inclination: 43.0 °
Period: 91.9 minutes
Semi major axis: 6743 km
RCS: Unknown
Launch date: February 22, 2026
Source: United States (US)
Launch site: AIR FORCE EASTERN TEST RANGE (AFETR)
Your satellite tracking list
Your tracking list is empty




NASA's NSSDC Master Catalog

Two Line Element Set (TLE):
1 67912U 26036J   26074.25001157 -.01932622  00000-0 -19350-1 0  9998
2 67912  42.9997 215.8663 0001414 266.2125 300.1485 15.67748766  4543
Source of the keplerian elements: AFSPC